Location: Bessat
(45.8735°N, 1.9924°E)
Time: 09:15:05
(UTC+00:00)

Helios 1A Rocket - Pass Details

Date: 11 May 2021
Orbit: 562 x 586 km, 98.3° (Epoch: 15 June)

Event Time Altitude Azimuth Distance (km) Brightness Sun altitude
Rises 19:39:21 0° 180° (S) 2,795 6.1 -4.9°
Reaches altitude 10° 19:41:33 10° 186° (S) 1,902 5.3 -5.2°
Maximum altitude 19:45:31 45° 260° (W) 800 4.1 -5.8°
Drops below altitude 10° 19:49:32 10° 334° (NNW) 1,919 6.7 -6.4°
Sets 19:51:47 0° 341° (NNW) 2,824 7.4 -6.7°
